QPF
0.03 0.03 0.04 0.03 0.04 0.04 0.03 0.01 0.01 0.01 0.01 0.01 0.01 0.00 0.00 0.00 0.00 0.00 0.00 0.00 0.00 0.00 0.00 0.00 0.00 0.00 0.00 0.00 0.00 0.00 0.00 0.00 0.00 0.00 0.00 0.00 0.00 0.00 0.00 0.01 0.01 0.00 0.00 0.00
0.03 0.02 0.02 0.03 0.04 0.04 0.03 0.02 0.02 0.01 0.01 0.01 0.00 0.00 0.00 0.00 0.00 0.00 0.00 0.00 0.00 0.00 0.00 0.00 0.00 0.00 0.00 0.00 0.00 0.00 0.00 0.00 0.00 0.00 0.00 0.00 0.00 0.00 0.00 0.00 0.01 0.00 0.00 0.00
0.02 0.01 0.01 0.02 0.02 0.04 0.04 0.02 0.02 0.01 0.01 0.01 0.00 0.00 0.00 0.00 0.00 0.00 0.00 0.00 0.00 0.00 0.00 0.00 0.00 0.00 0.00 0.00 0.00 0.00 0.00 0.00 0.00 0.00 0.00 0.00 0.00 0.00 0.00 0.00 0.00 0.00 0.01 0.01
0.01 0.01 0.01 0.02 0.01 0.03 0.03 0.02 0.02 0.02 0.01 0.01 0.01 0.00 0.00 0.00 0.00 0.00 0.00 0.00 0.00 0.00 0.00 0.00 0.00 0.00 0.00 0.00 0.00 0.00 0.00 0.00 0.00 0.00 0.00 0.00 0.00 0.00 0.00 0.00 0.00 0.00 0.01 0.01
0.01 0.01 0.01 0.02 0.02 0.03 0.04 0.03 0.02 0.02 0.01 0.00 0.00 0.00 0.00 0.00 0.00 0.00 0.00 0.00 0.00 0.00 0.00 0.00 0.00 0.00 0.00 0.00 0.00 0.00 0.00 0.00 0.00 0.00 0.00 0.00 0.00 0.00 0.00 0.00 0.00 0.00 0.01 0.00
0.02 0.02 0.02 0.03 0.04 0.04 0.05 0.03 0.02 0.01 0.00 0.00 0.00 0.00 0.00 0.00 0.00 0.00 0.00 0.00 0.00 0.00 0.00 0.00 0.00 0.00 0.00 0.00 0.00 0.00 0.00 0.00 0.00 0.00 0.00 0.00 0.00 0.00 0.00 0.00 0.00 0.00 0.01 0.00
0.01 0.02 0.02 0.02 0.03 0.02 0.03 0.02 0.01 0.00 0.00 0.00 0.00 0.00 0.00 0.00 0.00 0.00 0.00 0.00 0.00 0.00 0.00 0.00 0.00 0.00 0.00 0.00 0.00 0.00 0.00 0.00 0.00 0.00 0.00 0.00 0.00 0.00 0.00 0.00 0.00 0.00 0.00 0.00
0.01 0.01 0.02 0.01 0.01 0.01 0.01 0.01 0.01 0.00 0.00 0.00 0.00 0.00 0.00 0.00 0.00 0.00 0.00 0.00 0.00 0.00 0.00 0.00 0.00 0.00 0.00 0.00 0.00 0.00 0.00 0.00 0.00 0.00 0.00 0.00 0.00 0.00 0.00 0.00 0.00 0.00 0.00 0.00
0.01 0.01 0.01 0.01 0.00 0.00 0.01 0.00 0.00 0.00 0.00 0.00 0.00 0.00 0.00 0.00 0.00 0.00 0.00 0.00 0.00 0.00 0.00 0.00 0.00 0.00 0.00 0.00 0.00 0.00 0.00 0.00 0.00 0.00 0.00 0.00 0.00 0.00 0.00 0.00 0.00 0.00 0.00 0.00
0.00 0.00 0.00 0.00 0.00 0.00 0.00 0.00 0.00 0.00 0.00 0.00 0.00 0.00 0.00 0.00 0.00 0.00 0.00 0.00 0.00 0.00 0.00 0.00 0.00 0.00 0.00 0.00 0.00 0.00 0.00 0.00 0.00 0.00 0.00 0.00 0.00 0.00 0.00 0.00 0.00 0.00 0.00 0.00
0.01 0.00 0.00 0.00 0.00 0.00 0.00 0.00 0.00 0.00 0.00 0.00 0.00 0.00 0.00 0.00 0.00 0.00 0.00 0.00 0.00 0.00 0.00 0.00 0.00 0.00 0.00 0.00 0.00 0.00 0.00 0.00 0.00 0.00 0.00 0.00 0.00 0.00 0.00 0.00 0.00 0.00 0.00 0.00
0.00 0.00 0.00 0.00 0.00 0.00 0.00 0.00 0.00 0.00 0.00 0.00 0.00 0.00 0.00 0.00 0.00 0.00 0.00 0.00 0.00 0.00 0.00 0.00 0.00 0.00 0.00 0.00 0.00 0.00 0.00 0.00 0.00 0.00 0.00 0.00 0.00 0.00 0.00 0.00 0.00 0.00 0.00 0.00
0.00 0.00 0.00 0.00 0.00 0.00 0.00 0.00 0.00 0.00 0.00 0.00 0.00 0.00 0.00 0.00 0.00 0.00 0.00 0.00 0.00 0.00 0.00 0.00 0.00 0.00 0.00 0.00 0.00 0.00 0.00 0.00 0.00 0.00 0.00 0.00 0.00 0.00 0.00 0.00 0.00 0.00 0.00 0.00
0.00 0.00 0.00 0.00 0.00 0.00 0.00 0.00 0.00 0.00 0.00 0.00 0.00 0.00 0.00 0.00 0.00 0.00 0.00 0.00 0.00 0.00 0.00 0.00 0.00 0.00 0.00 0.00 0.00 0.00 0.00 0.00 0.00 0.00 0.00 0.00 0.00 0.00 0.00 0.00 0.00 0.00 0.00 0.00
0.00 0.00 0.00 0.00 0.00 0.00 0.00 0.00 0.00 0.00 0.00 0.00 0.00 0.00 0.00 0.00 0.00 0.00 0.00 0.00 0.00 0.00 0.00 0.00 0.00 0.00 0.00 0.00 0.00 0.00 0.00 0.00 0.00 0.00 0.00 0.00 0.00 0.00 0.00 0.00 0.00 0.00 0.00 0.00
0.00 0.00 0.00 0.00 0.00 0.00 0.00 0.00 0.00 0.00 0.00 0.00 0.00 0.00 0.00 0.00 0.00 0.00 0.00 0.00 0.00 0.00 0.00 0.00 0.00 0.00 0.00 0.00 0.00 0.00 0.00 0.00 0.00 0.00 0.00 0.00 0.00 0.00 0.00 0.00 0.00 0.00 0.00 0.00
0.00 0.00 0.00 0.00 0.00 0.00 0.00 0.00 0.00 0.00 0.00 0.00 0.00 0.00 0.00 0.00 0.00 0.00 0.00 0.00 0.00 0.00 0.00 0.00 0.00 0.00 0.00 0.00 0.00 0.00 0.00 0.00 0.00 0.00 0.00 0.00 0.00 0.00 0.00 0.00 0.00 0.00 0.00 0.00
0.00 0.00 0.00 0.00 0.00 0.00 0.00 0.00 0.00 0.00 0.00 0.00 0.00 0.00 0.00 0.00 0.00 0.00 0.00 0.00 0.00 0.00 0.00 0.00 0.00 0.00 0.00 0.00 0.00 0.00 0.00 0.00 0.00 0.00 0.00 0.00 0.00 0.00 0.00 0.00 0.00 0.00 0.00 0.00
0.00 0.00 0.00 0.00 0.00 0.00 0.00 0.00 0.00 0.00 0.00 0.00 0.00 0.00 0.00 0.00 0.00 0.00 0.00 0.00 0.00 0.00 0.00 0.00 0.00 0.00 0.00 0.00 0.00 0.00 0.00 0.00 0.00 0.00 0.00 0.00 0.00 0.00 0.00 0.00 0.00 0.00 0.00 0.00
0.00 0.00 0.00 0.00 0.00 0.00 0.00 0.00 0.00 0.00 0.00 0.00 0.00 0.00 0.00 0.00 0.00 0.00 0.00 0.00 0.00 0.00 0.00 0.00 0.00 0.00 0.00 0.00 0.00 0.00 0.00 0.00 0.00 0.00 0.00 0.00 0.00 0.00 0.00 0.00 0.00 0.00 0.00 0.00
0.00 0.00 0.00 0.00 0.00 0.00 0.00 0.00 0.00 0.00 0.00 0.00 0.00 0.00 0.00 0.00 0.00 0.00 0.00 0.00 0.00 0.00 0.00 0.00 0.00 0.00 0.00 0.00 0.00 0.00 0.00 0.00 0.00 0.00 0.00 0.00 0.00 0.00 0.00 0.00 0.00 0.00 0.00 0.00
0.00 0.00 0.00 0.00 0.00 0.00 0.00 0.00 0.00 0.00 0.00 0.00 0.00 0.00 0.00 0.00 0.00 0.00 0.00 0.00 0.00 0.00 0.00 0.00 0.00 0.00 0.00 0.00 0.00 0.00 0.00 0.00 0.00 0.00 0.00 0.00 0.00 0.00 0.00 0.00 0.00 0.00 0.00 0.00
0.00 0.00 0.00 0.00 0.00 0.00 0.00 0.00 0.00 0.00 0.00 0.00 0.00 0.00 0.00 0.00 0.00 0.00 0.00 0.00 0.00 0.00 0.00 0.00 0.00 0.00 0.00 0.00 0.00 0.00 0.00 0.00 0.00 0.00 0.00 0.00 0.00 0.00 0.00 0.00 0.00 0.00 0.00 0.00
0.00 0.00 0.00 0.00 0.00 0.00 0.00 0.00 0.00 0.00 0.00 0.00 0.00 0.00 0.00 0.00 0.00 0.00 0.00 0.00 0.00 0.00 0.00 0.00 0.00 0.00 0.00 0.00 0.00 0.00 0.00 0.00 0.00 0.00 0.00 0.00 0.00 0.00 0.00 0.00 0.00 0.00 0.00 0.00
0.00 0.00 0.00 0.00 0.00 0.00 0.00 0.00 0.00 0.00 0.00 0.00 0.00 0.00 0.00 0.00 0.00 0.00 0.00 0.00 0.00 0.00 0.00 0.00 0.00 0.00 0.00 0.00 0.00 0.00 0.00 0.00 0.00 0.00 0.00 0.00 0.00 0.00 0.00 0.00 0.00 0.00 0.00 0.00
0.00 0.00 0.00 0.00 0.00 0.00 0.00 0.00 0.00 0.00 0.00 0.00 0.00 0.00 0.00 0.00 0.00 0.00 0.00 0.00 0.00 0.00 0.00 0.00 0.00 0.00 0.00 0.00 0.00 0.00 0.00 0.00 0.00 0.00 0.00 0.00 0.00 0.00 0.00 0.00 0.00 0.00 0.00 0.00
MSLP
1011.04 1011.71 1012.29 1012.76 1013.10 1013.34 1013.50 1013.60 1013.64 1013.62 1013.54 1013.38 1013.15 1012.85 1012.51 1012.16 1011.85 1011.63 1011.52 1011.54 1011.67 1011.89 1012.17 1012.46 1012.74 1012.98 1013.18 1013.37 1013.54 1013.72 1013.92 1014.13 1014.33 1014.50 1014.62 1014.64 1014.57 1014.41 1014.16 1013.86 1013.53 1013.20 1012.89 1012.59
1011.55 1012.13 1012.60 1012.95 1013.20 1013.37 1013.49 1013.57 1013.61 1013.61 1013.54 1013.38 1013.13 1012.79 1012.39 1011.98 1011.61 1011.34 1011.19 1011.19 1011.32 1011.56 1011.87 1012.20 1012.52 1012.80 1013.04 1013.25 1013.46 1013.68 1013.91 1014.16 1014.40 1014.60 1014.74 1014.79 1014.73 1014.57 1014.33 1014.03 1013.71 1013.39 1013.09 1012.81
1011.96 1012.45 1012.81 1013.06 1013.23 1013.35 1013.45 1013.53 1013.60 1013.62 1013.56 1013.40 1013.12 1012.73 1012.27 1011.79 1011.34 1011.00 1010.81 1010.78 1010.91 1011.16 1011.50 1011.88 1012.24 1012.58 1012.87 1013.13 1013.38 1013.63 1013.90 1014.18 1014.46 1014.69 1014.85 1014.92 1014.88 1014.73 1014.50 1014.21 1013.90 1013.60 1013.32 1013.06
1012.23 1012.62 1012.89 1013.07 1013.19 1013.30 1013.41 1013.53 1013.63 1013.69 1013.65 1013.48 1013.17 1012.72 1012.18 1011.60 1011.07 1010.65 1010.39 1010.33 1010.44 1010.71 1011.08 1011.51 1011.93 1012.32 1012.67 1012.98 1013.28 1013.57 1013.88 1014.19 1014.48 1014.74 1014.92 1015.01 1014.98 1014.85 1014.64 1014.37 1014.08 1013.80 1013.55 1013.31
1012.33 1012.63 1012.84 1012.98 1013.11 1013.24 1013.41 1013.59 1013.75 1013.85 1013.83 1013.66 1013.30 1012.78 1012.14 1011.46 1010.82 1010.31 1009.98 1009.87 1009.97 1010.24 1010.64 1011.11 1011.59 1012.04 1012.45 1012.81 1013.15 1013.48 1013.81 1014.13 1014.45 1014.72 1014.92 1015.02 1015.02 1014.92 1014.73 1014.49 1014.23 1013.98 1013.75 1013.54
1012.27 1012.50 1012.68 1012.83 1012.99 1013.20 1013.45 1013.72 1013.96 1014.11 1014.11 1013.92 1013.51 1012.90 1012.16 1011.37 1010.62 1010.01 1009.61 1009.45 1009.52 1009.80 1010.23 1010.74 1011.27 1011.77 1012.22 1012.63 1012.99 1013.34 1013.68 1014.01 1014.33 1014.61 1014.82 1014.95 1014.97 1014.90 1014.75 1014.54 1014.32 1014.10 1013.90 1013.72
1012.09 1012.28 1012.45 1012.63 1012.87 1013.17 1013.52 1013.89 1014.22 1014.42 1014.44 1014.22 1013.75 1013.07 1012.22 1011.32 1010.48 1009.78 1009.31 1009.10 1009.15 1009.43 1009.88 1010.42 1010.98 1011.52 1012.00 1012.43 1012.80 1013.15 1013.48 1013.81 1014.11 1014.39 1014.62 1014.77 1014.83 1014.79 1014.68 1014.52 1014.33 1014.15 1013.98 1013.83
1011.85 1012.01 1012.20 1012.44 1012.75 1013.15 1013.61 1014.07 1014.47 1014.71 1014.74 1014.49 1013.97 1013.21 1012.28 1011.30 1010.37 1009.60 1009.08 1008.84 1008.88 1009.16 1009.62 1010.17 1010.76 1011.31 1011.80 1012.22 1012.58 1012.91 1013.21 1013.51 1013.81 1014.08 1014.32 1014.49 1014.58 1014.60 1014.53 1014.41 1014.27 1014.12 1013.98 1013.86
1011.61 1011.77 1011.97 1012.26 1012.65 1013.13 1013.66 1014.19 1014.64 1014.90 1014.92 1014.64 1014.08 1013.26 1012.28 1011.23 1010.26 1009.46 1008.91 1008.66 1008.69 1008.97 1009.44 1010.00 1010.58 1011.12 1011.59 1011.99 1012.32 1012.61 1012.88 1013.15 1013.42 1013.69 1013.94 1014.13 1014.27 1014.33 1014.31 1014.24 1014.14 1014.02 1013.92 1013.83
1011.43 1011.58 1011.80 1012.12 1012.55 1013.07 1013.65 1014.20 1014.65 1014.90 1014.89 1014.59 1013.99 1013.14 1012.14 1011.08 1010.10 1009.31 1008.77 1008.53 1008.57 1008.85 1009.30 1009.85 1010.41 1010.92 1011.36 1011.72 1012.00 1012.25 1012.48 1012.73 1012.98 1013.25 1013.51 1013.73 1013.90 1014.01 1014.05 1014.03 1013.97 1013.89 1013.81 1013.75
1011.35 1011.48 1011.71 1012.03 1012.46 1012.97 1013.53 1014.05 1014.45 1014.66 1014.61 1014.27 1013.65 1012.80 1011.81 1010.79 1009.85 1009.10 1008.60 1008.38 1008.44 1008.73 1009.17 1009.69 1010.21 1010.68 1011.07 1011.38 1011.63 1011.83 1012.04 1012.26 1012.51 1012.78 1013.05 1013.31 1013.53 1013.68 1013.77 1013.79 1013.78 1013.73 1013.68 1013.64
1011.35 1011.48 1011.68 1011.98 1012.37 1012.82 1013.30 1013.74 1014.05 1014.18 1014.06 1013.68 1013.05 1012.23 1011.28 1010.33 1009.47 1008.79 1008.35 1008.18 1008.26 1008.54 1008.96 1009.44 1009.92 1010.35 1010.69 1010.96 1011.17 1011.36 1011.55 1011.77 1012.02 1012.31 1012.61 1012.90 1013.16 1013.36 1013.49 1013.56 1013.58 1013.56 1013.54 1013.53
1011.42 1011.54 1011.71 1011.96 1012.27 1012.62 1012.98 1013.29 1013.48 1013.50 1013.30 1012.87 1012.24 1011.45 1010.57 1009.71 1008.94 1008.36 1007.99 1007.87 1007.97 1008.24 1008.64 1009.08 1009.51 1009.89 1010.20 1010.44 1010.64 1010.82 1011.02 1011.26 1011.54 1011.85 1012.19 1012.51 1012.80 1013.04 1013.21 1013.31 1013.36 1013.38 1013.38 1013.39
1011.54 1011.64 1011.77 1011.95 1012.16 1012.39 1012.60 1012.75 1012.79 1012.68 1012.39 1011.91 1011.28 1010.53 1009.73 1008.96 1008.30 1007.81 1007.52 1007.44 1007.55 1007.81 1008.17 1008.57 1008.95 1009.29 1009.58 1009.82 1010.03 1010.24 1010.47 1010.75 1011.07 1011.42 1011.79 1012.14 1012.46 1012.72 1012.92 1013.05 1013.12 1013.16 1013.18 1013.20
1011.65 1011.74 1011.83 1011.94 1012.04 1012.13 1012.18 1012.17 1012.05 1011.80 1011.42 1010.90 1010.26 1009.55 1008.83 1008.16 1007.59 1007.18 1006.95 1006.90 1007.02 1007.25 1007.57 1007.92 1008.27 1008.59 1008.87 1009.12 1009.37 1009.63 1009.91 1010.24 1010.61 1011.00 1011.40 1011.78 1012.12 1012.39 1012.60 1012.74 1012.83 1012.88 1012.92 1012.95
1011.73 1011.81 1011.86 1011.89 1011.89 1011.85 1011.75 1011.58 1011.31 1010.94 1010.47 1009.90 1009.26 1008.59 1007.94 1007.35 1006.87 1006.53 1006.34 1006.30 1006.40 1006.61 1006.88 1007.19 1007.50 1007.80 1008.10 1008.38 1008.68 1009.00 1009.35 1009.75 1010.16 1010.60 1011.02 1011.42 1011.76 1012.03 1012.23 1012.38 1012.47 1012.53 1012.57 1012.62
1011.77 1011.82 1011.83 1011.79 1011.70 1011.54 1011.31 1011.00 1010.61 1010.14 1009.60 1009.00 1008.37 1007.74 1007.14 1006.62 1006.20 1005.90 1005.73 1005.69 1005.76 1005.92 1006.15 1006.41 1006.70 1007.00 1007.32 1007.65 1008.01 1008.40 1008.82 1009.27 1009.74 1010.21 1010.65 1011.04 1011.37 1011.63 1011.83 1011.96 1012.05 1012.11 1012.15 1012.21
1011.74 1011.75 1011.71 1011.60 1011.43 1011.17 1010.85 1010.44 1009.96 1009.43 1008.84 1008.23 1007.62 1007.02 1006.47 1006.00 1005.63 1005.35 1005.19 1005.13 1005.16 1005.27 1005.45 1005.67 1005.94 1006.24 1006.58 1006.96 1007.38 1007.84 1008.33 1008.84 1009.35 1009.84 1010.28 1010.67 1010.98 1011.22 1011.39 1011.51 1011.59 1011.65 1011.70 1011.76
1011.65 1011.59 1011.48 1011.30 1011.06 1010.74 1010.35 1009.89 1009.37 1008.80 1008.21 1007.61 1007.03 1006.47 1005.97 1005.54 1005.19 1004.92 1004.75 1004.65 1004.64 1004.70 1004.82 1005.01 1005.26 1005.56 1005.93 1006.36 1006.83 1007.35 1007.90 1008.45 1008.99 1009.49 1009.93 1010.31 1010.60 1010.82 1010.98 1011.09 1011.16 1011.22 1011.28 1011.34
1011.49 1011.33 1011.14 1010.90 1010.59 1010.23 1009.81 1009.33 1008.81 1008.26 1007.69 1007.13 1006.59 1006.09 1005.63 1005.23 1004.90 1004.63 1004.42 1004.29 1004.22 1004.22 1004.30 1004.45 1004.68 1004.99 1005.38 1005.84 1006.37 1006.94 1007.53 1008.12 1008.68 1009.18 1009.62 1009.98 1010.27 1010.47 1010.62 1010.73 1010.81 1010.88 1010.95 1011.02
1011.28 1011.00 1010.71 1010.39 1010.05 1009.66 1009.24 1008.78 1008.29 1007.79 1007.28 1006.79 1006.31 1005.86 1005.44 1005.06 1004.73 1004.44 1004.20 1004.02 1003.90 1003.85 1003.87 1003.99 1004.20 1004.51 1004.92 1005.41 1005.97 1006.58 1007.20 1007.82 1008.40 1008.92 1009.36 1009.72 1010.00 1010.21 1010.37 1010.49 1010.59 1010.68 1010.78 1010.87
1011.02 1010.61 1010.22 1009.84 1009.46 1009.07 1008.67 1008.26 1007.84 1007.41 1006.98 1006.56 1006.15 1005.75 1005.37 1005.00 1004.66 1004.35 1004.07 1003.83 1003.65 1003.54 1003.51 1003.59 1003.78 1004.09 1004.50 1005.01 1005.60 1006.24 1006.90 1007.54 1008.14 1008.67 1009.13 1009.50 1009.80 1010.03 1010.22 1010.38 1010.52 1010.65 1010.78 1010.90
1010.72 1010.19 1009.71 1009.28 1008.89 1008.52 1008.16 1007.82 1007.48 1007.14 1006.80 1006.45 1006.10 1005.74 1005.38 1005.02 1004.66 1004.30 1003.97 1003.67 1003.42 1003.25 1003.17 1003.21 1003.37 1003.67 1004.09 1004.61 1005.22 1005.89 1006.57 1007.24 1007.87 1008.43 1008.92 1009.32 1009.66 1009.93 1010.17 1010.38 1010.57 1010.76 1010.94 1011.10
1010.40 1009.79 1009.25 1008.80 1008.41 1008.08 1007.78 1007.51 1007.25 1006.99 1006.73 1006.44 1006.14 1005.81 1005.45 1005.07 1004.67 1004.26 1003.86 1003.49 1003.17 1002.93 1002.80 1002.79 1002.93 1003.21 1003.62 1004.16 1004.78 1005.47 1006.19 1006.89 1007.55 1008.15 1008.68 1009.14 1009.53 1009.86 1010.16 1010.43 1010.69 1010.94 1011.18 1011.39
1010.11 1009.46 1008.91 1008.46 1008.10 1007.81 1007.57 1007.37 1007.18 1006.99 1006.78 1006.53 1006.25 1005.92 1005.54 1005.12 1004.66 1004.18 1003.71 1003.26 1002.86 1002.55 1002.36 1002.30 1002.40 1002.66 1003.07 1003.61 1004.25 1004.96 1005.71 1006.45 1007.15 1007.81 1008.39 1008.91 1009.36 1009.76 1010.13 1010.47 1010.80 1011.12 1011.42 1011.68
1009.90 1009.26 1008.74 1008.32 1008.01 1007.77 1007.58 1007.43 1007.28 1007.13 1006.93 1006.70 1006.40 1006.04 1005.62 1005.13 1004.60 1004.04 1003.48 1002.95 1002.47 1002.09 1001.83 1001.73 1001.79 1002.02 1002.42 1002.95 1003.61 1004.34 1005.12 1005.90 1006.65 1007.36 1008.01 1008.59 1009.11 1009.58 1010.02 1010.43 1010.82 1011.19 1011.54 1011.86
Thickness
5725 5723 5720 5730 5737 5739 5739 5735 5735 5742 5748 5742 5743 5748 5756 5759 5755 5754 5755 5755 5754 5752 5753 5749 5745 5740 5736 5731 5727 5721 5716 5711 5706 5702 5698 5694 5691 5687 5684 5681 5676 5674 5673 5672
5715 5718 5733 5738 5737 5734 5733 5729 5732 5738 5742 5740 5742 5747 5758 5760 5757 5758 5759 5758 5757 5754 5751 5746 5743 5738 5735 5730 5726 5721 5716 5711 5706 5700 5697 5693 5688 5686 5683 5679 5676 5673 5672 5671
5716 5727 5734 5730 5727 5726 5728 5727 5730 5730 5735 5739 5736 5743 5754 5759 5758 5758 5758 5760 5761 5755 5752 5747 5742 5739 5734 5730 5725 5720 5716 5711 5705 5701 5697 5692 5689 5686 5683 5679 5676 5673 5671 5670
5718 5726 5727 5726 5727 5729 5723 5734 5731 5728 5726 5731 5730 5725 5747 5753 5752 5754 5755 5757 5757 5755 5752 5748 5743 5739 5735 5731 5726 5722 5716 5712 5706 5701 5697 5692 5687 5684 5681 5678 5676 5675 5672 5670
5716 5723 5724 5723 5730 5731 5729 5730 5730 5728 5727 5727 5732 5725 5743 5749 5748 5755 5757 5757 5757 5756 5753 5748 5744 5740 5737 5732 5726 5721 5716 5711 5706 5701 5695 5691 5688 5685 5682 5679 5677 5675 5673 5671
5720 5728 5730 5730 5731 5732 5727 5726 5725 5726 5726 5715 5727 5722 5731 5749 5750 5754 5757 5758 5757 5755 5752 5748 5745 5740 5736 5731 5725 5720 5714 5710 5705 5700 5696 5692 5687 5684 5681 5678 5676 5675 5674 5672
5712 5720 5728 5731 5722 5723 5725 5720 5711 5710 5710 5716 5725 5720 5733 5752 5754 5753 5754 5757 5758 5756 5752 5748 5743 5738 5734 5729 5724 5720 5714 5709 5705 5701 5697 5693 5689 5685 5682 5679 5677 5675 5674 5672
5709 5709 5723 5729 5730 5725 5726 5726 5710 5699 5704 5718 5721 5721 5743 5753 5753 5753 5754 5756 5756 5755 5753 5749 5745 5740 5735 5730 5725 5720 5715 5711 5706 5702 5699 5695 5690 5687 5684 5680 5678 5676 5674 5672
5716 5714 5725 5729 5733 5734 5724 5725 5732 5720 5714 5708 5723 5732 5746 5752 5750 5750 5752 5752 5753 5754 5751 5748 5745 5741 5737 5732 5727 5722 5717 5712 5708 5704 5700 5696 5692 5688 5685 5682 5679 5677 5675 5672
5727 5716 5721 5724 5729 5725 5732 5730 5720 5713 5700 5699 5712 5721 5732 5744 5747 5749 5749 5750 5753 5753 5751 5748 5745 5741 5738 5734 5729 5724 5719 5714 5710 5705 5701 5697 5693 5689 5685 5683 5680 5677 5675 5672
5730 5722 5716 5721 5721 5724 5719 5719 5720 5718 5713 5700 5699 5720 5745 5745 5747 5748 5751 5753 5753 5752 5751 5749 5745 5742 5739 5734 5730 5724 5720 5715 5711 5707 5703 5698 5694 5690 5687 5683 5680 5677 5675 5673
5728 5728 5719 5722 5728 5728 5727 5726 5721 5708 5708 5708 5704 5720 5752 5747 5748 5748 5751 5753 5754 5753 5752 5749 5746 5742 5738 5734 5731 5726 5722 5717 5712 5708 5704 5699 5695 5691 5688 5685 5682 5680 5677 5675
5726 5722 5712 5711 5714 5719 5719 5720 5720 5719 5715 5709 5701 5719 5749 5748 5747 5749 5749 5752 5752 5751 5749 5747 5744 5741 5738 5734 5731 5728 5723 5718 5714 5709 5704 5701 5698 5693 5690 5687 5684 5681 5678 5676
5726 5724 5716 5706 5714 5721 5716 5714 5713 5712 5708 5710 5714 5724 5741 5744 5746 5749 5750 5752 5752 5751 5748 5746 5743 5741 5738 5736 5732 5728 5724 5720 5715 5710 5705 5701 5699 5695 5691 5688 5684 5681 5679 5676
5725 5720 5722 5723 5723 5719 5717 5717 5713 5710 5717 5715 5723 5728 5739 5747 5750 5752 5753 5752 5750 5749 5748 5747 5744 5743 5739 5736 5732 5729 5725 5721 5716 5711 5706 5703 5700 5695 5691 5687 5684 5681 5678 5676
5721 5717 5718 5716 5719 5715 5712 5718 5718 5715 5717 5719 5722 5728 5748 5753 5754 5751 5752 5751 5749 5749 5749 5749 5747 5744 5741 5738 5734 5730 5725 5721 5717 5712 5707 5703 5699 5694 5690 5687 5684 5681 5678 5676
5717 5714 5707 5708 5715 5709 5708 5724 5723 5721 5724 5722 5721 5735 5749 5747 5747 5750 5753 5753 5752 5753 5752 5750 5749 5746 5743 5741 5737 5730 5726 5722 5717 5712 5707 5702 5698 5694 5690 5687 5684 5680 5678 5676
5712 5710 5706 5704 5704 5689 5722 5736 5728 5723 5726 5732 5732 5739 5744 5745 5750 5754 5757 5756 5755 5755 5753 5752 5750 5747 5745 5742 5737 5732 5726 5721 5716 5711 5706 5701 5697 5693 5689 5685 5682 5679 5678 5675
5711 5705 5700 5698 5693 5701 5720 5729 5724 5717 5722 5735 5734 5737 5742 5745 5744 5752 5759 5759 5759 5758 5756 5754 5752 5748 5745 5740 5735 5730 5724 5719 5714 5709 5705 5701 5696 5692 5688 5684 5681 5679 5676 5673
5699 5701 5697 5692 5684 5687 5713 5726 5727 5719 5714 5731 5732 5731 5735 5734 5733 5749 5759 5757 5757 5756 5754 5752 5749 5746 5741 5737 5732 5727 5722 5717 5711 5707 5703 5700 5695 5690 5686 5683 5680 5677 5674 5670
5692 5689 5687 5688 5687 5700 5719 5719 5716 5701 5709 5724 5727 5728 5730 5730 5738 5747 5751 5751 5751 5750 5748 5746 5743 5739 5737 5733 5728 5723 5719 5714 5710 5705 5700 5695 5691 5687 5684 5680 5677 5674 5671 5668
5690 5688 5687 5687 5681 5690 5711 5708 5703 5707 5718 5720 5721 5724 5726 5730 5735 5739 5741 5743 5743 5742 5740 5739 5736 5733 5730 5727 5723 5719 5714 5711 5705 5699 5694 5690 5687 5684 5680 5676 5673 5671 5668 5665
5684 5688 5688 5688 5693 5699 5701 5700 5703 5705 5707 5711 5713 5717 5720 5723 5727 5731 5734 5736 5736 5736 5734 5732 5730 5726 5723 5721 5719 5714 5709 5703 5698 5693 5689 5686 5682 5678 5675 5672 5669 5666 5663 5662
5680 5679 5675 5678 5690 5693 5693 5694 5694 5695 5697 5702 5706 5710 5713 5715 5721 5725 5727 5729 5729 5729 5728 5726 5723 5720 5717 5715 5712 5710 5703 5698 5694 5689 5684 5681 5678 5674 5670 5666 5664 5661 5658 5656
5663 5662 5663 5667 5677 5681 5685 5683 5684 5685 5689 5693 5699 5702 5705 5708 5713 5717 5720 5723 5723 5722 5721 5720 5719 5716 5713 5708 5704 5701 5697 5693 5689 5684 5679 5676 5671 5668 5663 5659 5654 5651 5647 5645
5652 5649 5648 5654 5662 5660 5666 5672 5672 5672 5676 5681 5686 5692 5698 5700 5705 5710 5713 5717 5717 5717 5716 5714 5713 5710 5708 5703 5698 5694 5690 5687 5684 5679 5675 5670 5665 5660 5657 5652 5645 5637 5636 5632